Meknes, Morocco

2:55 AM WET on May 22, 2018 (GMT +0000)
Meknes

Weather History for GMFM - February, 2013

Change the Weather History Date:

Friday, February 8, 2013

  Actual Average (GMFF) Record (GMFF)
Temperature  
Mean Temperature 44 °F -  
Max Temperature 55 °F 63 °F 72 °F (2016)
Min Temperature 33 °F 44 °F 30 °F (2013)
Degree Days  
Heating Degree Days 21    
Moisture  
Dew Point 34 °F    
Average Humidity 64    
Maximum Humidity 87    
Minimum Humidity 38    
Precipitation  
Precipitation 0.00 in 0.11 in - ()
Sea Level Pressure  
Sea Level Pressure 30.14 in    
Wind  
Wind Speed 4 mph ()    
Max Wind Speed 9 mph    
Max Gust Speed -    
Visibility 6.1 miles    
Events      
Averages and records for this station are not official NWS values.
T = Trace of Precipitation, MM = Missing Value Source: Averaged Metar Reports

Daily Weather History Graph

Daily Weather History Graph

Search for Another Location

Airport or City:

Astronomy

Feb. 08, 2013 Rise Set
Actual Time 7:13 AM WET 5:59 PM WET
Civil Twilight 6:47 AM WET 6:25 PM WET
Nautical Twilight 6:17 AM WET 6:55 PM WET
Astronomical Twilight 5:48 AM WET 7:24 PM WET
Moon 5:28 AM WET (2/8) 4:18 PM WET (2/8)
Length of Visible Light 11h 38m
Length of Day
10h 46m
Waning Crescent, 4% of the Moon is Illuminated
Feb 8
Waning Crescent
Feb 10
New
Feb 17
First Quarter
Feb 25
Full
Mar 4
Last Quarter

Hourly Weather History & Observations

Time (WET) Temp. Windchill Dew Point Humidity Pressure Visibility Wind Dir Wind Speed Gust Speed Precip Events Conditions
12:00 AM 38 °F - 33 °F 76% 30.27 in 6 mi South 2.3 mph - -  
12:00 AM 37.4 °F - 33.8 °F 87% 30.18 in - South 2.3 mph - N/A   Clear
1:00 AM 37.4 °F - 32.0 °F 81% 30.18 in - South 2.3 mph - N/A   Clear
3:00 AM 39 °F - 33 °F 70% 30.18 in 6 mi SSE 3.5 mph - -  
3:00 AM 39.2 °F 37.0 °F 32.0 °F 75% 30.12 in - SSE 3.5 mph - N/A   Clear
4:00 AM 37.4 °F - 32.0 °F 81% 30.12 in - SE 2.3 mph - N/A   Clear
5:00 AM 35.6 °F - 30.2 °F 81% 30.09 in - SSE 2.3 mph - N/A   Clear
6:00 AM 35 °F - 29 °F 71% 30.19 in 6 mi SSE 2.3 mph - -  
6:00 AM 33.8 °F - 28.4 °F 81% 30.12 in - SSE 2.3 mph - N/A   Clear
7:00 AM 35.6 °F 31.7 °F 30.2 °F 81% 30.12 in - SSE 4.6 mph - N/A   Clear
8:00 AM 37.4 °F 33.8 °F 32.0 °F 81% 30.12 in - South 4.6 mph - N/A   Clear
10:00 AM 50.0 °F - 35.6 °F 58% 30.15 in - North - - N/A   Clear
11:00 AM 51.8 °F - 33.8 °F 50% 30.15 in - West 2.3 mph - N/A   Clear
12:00 PM 53 °F - 35 °F 38% 30.15 in 6 mi WNW 5.8 mph - -   Scattered Clouds
12:00 PM 53.6 °F - 35.6 °F 51% 30.15 in 6.2 mi WNW 5.8 mph - N/A   Partly Cloudy
1:00 PM 53.6 °F - 35.6 °F 51% 30.12 in 6.2 mi West 6.9 mph - N/A   Partly Cloudy
2:00 PM 53.6 °F - 35.6 °F 51% 30.09 in 6.2 mi West 9.2 mph - N/A   Partly Cloudy
3:00 PM 54 °F - 37 °F 40% 30.10 in 6 mi WNW 8.1 mph - -   Scattered Clouds
3:00 PM 55.4 °F - 37.4 °F 51% 30.09 in 6.2 mi WNW 6.9 mph - N/A   Partly Cloudy
4:00 PM 55.4 °F - 33.8 °F 44% 30.09 in 6.2 mi West 8.1 mph - N/A   Partly Cloudy
5:00 PM 53.6 °F - 33.8 °F 47% 30.09 in - West 9.2 mph - N/A   Clear
6:00 PM 51 °F - 35 °F 43% 30.11 in 6 mi WNW 5.8 mph - -  
6:00 PM 50.0 °F - 35.6 °F 58% 30.09 in - WNW 5.8 mph - N/A   Clear
7:00 PM 48.2 °F - 33.8 °F 58% 30.09 in - WNW 5.8 mph - N/A   Clear
8:00 PM 44.6 °F 42.2 °F 33.8 °F 66% 30.12 in - West 4.6 mph - N/A   Unknown
9:00 PM 42 °F - 35 °F 66% 30.19 in 6 mi West 4.6 mph - -  
9:00 PM 42.8 °F 40.1 °F 33.8 °F 70% 30.15 in - West 4.6 mph - N/A   Clear
10:00 PM 41.0 °F 39.0 °F 33.8 °F 76% 30.15 in - West 3.5 mph - N/A   Clear
11:00 PM 41.0 °F 38.0 °F 33.8 °F 76% 30.15 in - SSW 4.6 mph - N/A   Volcanic Ash